BMCB-6 Weather Reports


time (UTC)temp
F
wind
direction
speed
knots
gust
knots
rain 1hr
in
rain 24hr
in
rain mn
in
humidity
%
barometer
mb
20260503055007 54 0 0.0 0.0 0.00 0.00 0.00 74 1013.9
20260503053008 54 0 0.0 0.0 0.00 0.00 0.00 76 1014.1
20260503052007 54 0 0.0 0.0 0.00 0.00 0.00 77 1014.1
20260503050008 54 0 0.0 0.0 0.00 0.00 0.00 79 1014.2
20260503045008 54 0 0.0 0.0 0.00 0.00 0.00 80 1014.2
20260503044007 54 0 0.0 0.0 0.00 0.00 0.00 81 1014.3
20260503043008 54 0 0.0 0.0 0.00 0.00 0.00 82 1014.3
20260503042007 54 0 0.0 0.0 0.00 0.00 0.00 84 1014.3
20260503041008 54 0 0.0 0.0 0.00 0.00 0.00 85 1014.2
20260503040008 54 0 0.0 0.0 0.00 0.00 0.00 85 1014.3
20260503035007 54 0 0.0 0.0 0.00 0.00 0.00 87 1014.3
20260503033008 55 0 0.0 0.0 0.00 0.00 0.00 87 1014.5
20260503032008 55 0 0.0 0.0 0.00 0.00 0.00 87 1014.5
20260503031008 55 0 0.0 0.0 0.00 0.00 0.00 86 1014.4
20260503030008 56 0 0.0 0.0 0.00 0.00 0.00 85 1014.4
20260503025007 56 0 0.0 0.0 0.00 0.00 0.00 85 1014.4
20260503024007 56 0 0.0 0.0 0.00 0.00 0.00 86 1014.6
20260503022008 55 0 0.0 0.0 0.00 0.00 0.00 86 1014.5
20260503021008 55 0 0.0 0.0 0.00 0.00 0.00 86 1014.6
20260503020008 56 0 0.0 0.0 0.00 0.00 0.00 85 1014.7
20260503015008 57 0 0.0 0.0 0.00 0.00 0.00 84 1014.7
20260503014008 57 0 0.0 0.0 0.00 0.00 0.00 85 1014.8
20260503013008 57 0 0.0 0.0 0.00 0.00 0.00 85 1014.9
20260503012008 57 0 0.0 0.0 0.00 0.00 0.00 85 1015.0
20260503005008 57 0 0.0 0.0 0.00 0.00 0.00 84 1015.3
20260503004008 57 0 0.0 0.0 0.00 0.00 0.00 83 1015.4
20260503003008 57 0 0.0 0.0 0.00 0.00 0.00 84 1015.5
20260503002007 57 0 0.0 0.0 0.00 0.00 0.00 85 1015.6
20260503000008 58 0 0.0 0.0 0.00 0.00 0.00 82 1015.7
20260502232008 58 0 0.0 0.0 0.00 0.00 0.00 83 1015.6
20260502231008 58 0 0.0 0.0 0.00 0.00 0.00 84 1015.7
20260502230008 58 0 0.0 0.0 0.00 0.00 0.00 83 1015.7
20260502225008 58 0 0.0 0.0 0.00 0.00 0.00 82 1015.7
20260502224008 58 0 0.0 0.0 0.00 0.00 0.00 82 1015.7
20260502223013 59 0 0.0 0.0 0.00 0.00 0.00 82 1015.6
20260502222008 59 0 0.0 0.0 0.00 0.00 0.00 82 1015.7
20260502220009 59 0 0.0 0.0 0.00 0.00 0.00 81 1015.8
20260502215009 60 0 0.0 0.0 0.00 0.00 0.00 81 1015.9
20260502214008 60 0 0.0 0.0 0.00 0.00 0.00 80 1015.8
20260502212010 61 0 0.0 0.0 0.00 0.00 0.00 78 1015.8
20260502204008 60 0 0.0 0.0 0.00 0.00 0.00 77 1016.0
20260502203008 60 0 0.0 0.0 0.00 0.00 0.00 77 1016.1
20260502200009 60 0 0.0 0.0 0.00 0.00 0.00 78 1016.2
20260502195008 60 0 0.0 0.0 0.00 0.00 0.00 78 1016.1
20260502194008 61 0 0.0 0.0 0.00 0.00 0.00 77 1016.0
20260502193009 61 0 0.0 0.0 0.00 0.00 0.00 76 1015.9
20260502192009 61 0 0.0 0.0 0.00 0.00 0.00 76 1015.9
20260502190009 62 0 0.0 0.0 0.00 0.00 0.00 74 1015.7
20260502183008 64 0 0.0 0.0 0.00 0.00 0.00 71 1015.7
20260502182008 64 0 0.0 0.0 0.00 0.00 0.00 71 1015.7
20260502181008 64 0 0.0 0.0 0.00 0.00 0.00 71 1015.7
20260502164008 69 0 0.0 0.0 0.00 0.00 0.00 63 1015.7
20260502163008 69 0 0.0 0.0 0.00 0.00 0.00 63 1015.8
20260502162008 69 0 0.0 0.0 0.00 0.00 0.00 62 1015.9
20260502161009 69 0 0.0 0.0 0.00 0.00 0.00 60 1016.0
20260502152009 72 0 0.0 0.0 0.00 0.00 0.00 57 1016.1
20260502121008 69 0 0.0 0.0 0.00 0.00 0.00 67 1019.1
20260502115008 68 0 0.0 0.0 0.00 0.00 0.00 68 1019.5
20260502113008 68 0 0.0 0.0 0.00 0.00 0.00 67 1019.8
20260502112008 68 0 0.0 0.0 0.00 0.00 0.00 66 1019.9
20260502111007 68 0 0.0 0.0 0.00 0.00 0.00 66 1019.9
20260502110007 68 0 0.0 0.0 0.00 0.00 0.00 65 1019.9
20260502101007 68 0 0.0 0.0 0.00 0.00 0.00 69 1020.4
20260502091008 66 0 0.0 0.0 0.00 0.00 0.00 71 1020.8